This is the latest recevied weather packets stored in our database for station/object KV4OP. If no packets are shown the sender has not sent any weather packets the latest 10 day(s).
| Time | Temp. | Humidity | Pressure | Rain* | Wind** | Luminosity | Snow |
|---|---|---|---|---|---|---|---|
| 1777585854 | 31.11° C | 46% | 1009.4 hPa | 0 mm | - | - | - |
| 1777585563 | 31.11° C | 46% | 1009.4 hPa | 0 mm | - | - | - |
| 1777585254 | 31.67° C | 45% | 1009.3 hPa | 0 mm | - | - | - |
| 1777584954 | 31.67° C | 44% | 1009.2 hPa | 0 mm | - | - | - |
| 1777584653 | 32.22° C | 43% | 1009.2 hPa | 0 mm | - | - | - |
| 1777584354 | 31.67° C | 46% | 1009.4 hPa | 0 mm | - | - | - |
| 1777584053 | 32.22° C | 44% | 1009.4 hPa | 0 mm | - | - | - |
| 1777583754 | 32.22° C | 46% | 1009.6 hPa | 0 mm | - | - | - |
| 1777583452 | 32.22° C | 45% | 1009.6 hPa | 0 mm | - | - | - |
| 1777583152 | 31.67° C | 47% | 1009.6 hPa | 0 mm | - | - | - |
| 1777582852 | 32.22° C | 44% | 1009.6 hPa | 0 mm | - | - | - |
| 1777582553 | 32.78° C | 45% | 1009.4 hPa | 0 mm | - | - | - |
| 1777582310 | 32.22° C | 45% | 1009.6 hPa | 0 mm | - | - | - |
| 1777581956 | 32.78° C | 44% | 1009.6 hPa | 0 mm | - | - | - |
| 1777581650 | 32.78° C | 44% | 1009.6 hPa | 0 mm | - | - | - |
| 1777581350 | 32.78° C | 44% | 1009.7 hPa | 0 mm | - | - | - |
| 1777581048 | 32.22° C | 46% | 1009.6 hPa | 0 mm | - | - | - |
| 1777580750 | 32.22° C | 45% | 1009.8 hPa | 0 mm | - | - | - |
| 1777580449 | 32.22° C | 45% | 1009.8 hPa | 0 mm | - | - | - |
| 1777580164 | 32.78° C | 43% | 1009.8 hPa | 0 mm | - | - | - |
| 1777579847 | 33.33° C | 44% | 1009.7 hPa | 0 mm | - | - | - |
| 1777579545 | 33.33° C | 44% | 1009.7 hPa | 0 mm | - | - | - |
| 1777579246 | 33.89° C | 48% | 1009.9 hPa | 0 mm | - | - | - |
| 1777578944 | 33.33° C | 46% | 1009.9 hPa | 0 mm | - | - | - |
| 1777578645 | 32.78° C | 48% | 1009.9 hPa | 0 mm | - | - | - |
* Rain latest hour (hover to see other rain measurements)
** Current wind speed in m/s (hover to see current wind gust speed)